Location: Burkes Observatory
(44.7598°N, 69.4315°W)
Time: 23:02:36
(UTC-05:00)

Daily predictions for brighter satellites

Satellite Brightness Start Highest point End
(mag) Time Altitude Azimuth Time Altitude Azimuth Time Altitude Azimuth
Cosmos 540 Rocket 4.4 16:26:51 10° N 16:31:09 26° ENE 16:35:26 10° ESE
IRAS Rocket 4.2 16:25:40 10° SSE 16:31:10 70° ENE 16:36:39 10° NNW
Cosmos 1933 3.3 16:28:10 10° S 16:32:12 86° E 16:36:15 10° N
Cosmos 2233 Rocket 4.3 16:26:56 10° SSE 16:32:51 46° E 16:38:44 10° NNE
CSL-04 Rocket 3.7 16:28:05 10° SSE 16:33:16 59° ENE 16:38:33 10° N
Cosmos 1484 Rocket 3.3 16:29:49 10° SE 16:33:26 39° ENE 16:37:08 10° N
CZ-4 R/B 2.1 16:31:12 10° SE 16:34:33 29° ENE 16:37:54 10° N
Cosmos 2082 Rocket 2.9 16:29:47 10° N 16:34:49 31° NE 16:39:48 10° ESE
SL-27 R/B 3.3 16:32:46 10° N 16:35:40 26° ENE 16:38:33 10° ESE
Cosmos 44 4.3 16:33:33 10° NNW 16:37:23 25° NE 16:41:22 10° E
BREEZE-M DEB (TANK) 2.3 16:37:33 10° WSW 16:39:48 80° NNW 16:42:43 10° ENE
Cosmos 1862 Rocket 3.6 16:36:33 10° S 16:40:56 67° E 16:45:23 10° NNE
Ariane Rocket 3.0 16:36:34 10° SSE 16:41:34 60° ENE 16:46:35 10° N
Cosmos 1340 3.0 16:39:01 10° SSW 16:42:46 68° WNW 16:46:33 10° N
Meteor 1-20 Rocket 4.5 16:37:39 10° N 16:42:58 43° ENE 16:48:10 10° SE
Cosmos 2242 Rocket 3.7 16:39:11 10° S 16:43:44 88° W 16:48:17 10° N
Cosmos 841 Rocket 3.6 16:38:50 10° NNW 16:44:04 58° ENE 16:49:15 10° SE
Meteor 1-25 Rocket 4.5 16:40:04 10° N 16:45:46 51° ENE 16:51:24 10° SSE
Sich 1 Rocket 4.1 16:43:29 10° N 16:47:36 37° ENE 16:51:45 10° SE
Cosmos 1437 2.7 16:48:14 10° SSW 16:51:24 83° WNW 16:54:36 10° N
Okean 1-7 4.2 16:48:34 10° SE 16:52:03 24° E 16:55:34 10° NE
AQUARIUS 4.1 16:48:43 10° SSE 16:53:09 66° ENE 16:57:37 10° N
ERS-2 3.1 16:50:23 10° SE 16:53:28 26° ENE 16:56:34 10° N
ALOS 3.4 16:52:03 10° ESE 16:55:33 21° ENE 16:59:04 10° NNE
SJ-7 4.4 16:53:06 10° SSE 16:57:16 85° ENE 17:01:23 10° NNW
Cosmos 1782 3.6 16:55:30 10° SSE 16:59:04 31° E 17:02:38 10° NNE
Cosmos 1486 Rocket 4.1 16:54:03 10° S 16:59:10 60° ESE 17:04:21 10° NNE
Cosmos 405 Rocket 4.3 16:58:24 10° SE 17:00:39 15° E 17:01:18 15° ENE
Cosmos 1844 Rocket 3.8 16:55:58 10° SW 17:01:19 44° WNW 17:06:43 10° NNE
SMAP 3.0 16:58:05 10° SSE 17:02:43 84° ENE 17:07:24 10° NNW
CZ-4C R/B 3.4 16:58:52 10° NNW 17:05:14 37° NE 17:12:20 10° ESE
CENTAUR R/B 3.3 17:00:58 10° WSW 17:06:58 51° NW 17:13:52 10° NNE
Cosmos 1633 2.8 17:07:13 10° N 17:10:48 46° ENE 17:14:20 10° SSE
Cosmos 1782 Rocket 3.8 17:06:48 10° N 17:11:00 45° ENE 17:15:11 10° SSE
USA 116 3.9 17:08:45 10° NNE 17:13:11 58° E 17:17:02 10° S
BREEZE-M R/B 2.7 17:11:21 10° WNW 17:13:54 62° SSW 17:17:54 10° SE
Cosmos 1354 Rocket 4.3 17:12:20 10° S 17:17:19 45° ESE 17:21:58 12° NE
FENGYUN 3A 4.2 17:12:35 10° SE 17:17:29 36° ENE 17:22:23 10° N
COSMO-SKYMED 1 3.1 17:13:41 10° NNE 17:17:44 37° E 17:21:45 10° SSE
YAOGAN 1 2.5 17:14:50 10° SSE 17:19:07 67° ENE 17:23:26 10° N
Meteor 1-10 Rocket 4.4 17:17:38 10° SSE 17:23:04 49° E 17:28:38 10° NNE
Intercosmos 25 4.4 17:15:49 10° S 17:23:41 65° E 17:28:27 10° NNE
SPOT 3 Rocket 3.8 17:19:20 10° SE 17:24:19 47° ENE 17:29:18 10° N
Cosmos 1833 Rocket 2.6 17:23:18 10° NNW 17:28:57 75° ENE 17:34:34 10° SSE
Nadezhda 4 Rocket 4.5 17:23:46 10° N 17:29:19 34° ENE 17:34:50 10° SE
BREEZE-M DEB (TANK) 2.6 17:27:26 10° SW 17:29:26 39° SE 17:29:58 34° ESE
Cosmos 1072 Rocket 4.5 17:24:56 10° S 17:31:03 62° E 17:37:17 10° NNE
Cosmos 2297 3.7 17:31:48 10° S 17:37:26 63° ESE 17:41:49 17° NE
Cosmos 2034 Rocket 4.2 17:31:57 10° SSE 17:38:00 48° E 17:44:04 10° NNE
Cosmos 2221 Rocket 3.5 17:35:44 10° S 17:40:05 68° E 17:44:30 10° NNE
Cosmos 1703 Rocket 3.7 17:36:17 10° SSW 17:40:45 75° W 17:45:13 10° N
Cosmos 2278 Rocket 2.8 17:35:26 10° SW 17:41:00 56° WNW 17:46:36 10° NNE
Meteor 2-20 4.5 17:35:17 10° N 17:41:13 52° ENE 17:47:07 10° SSE
Timation 2 Rocket 4.4 17:34:49 10° NNW 17:41:20 46° NE 17:46:05 18° ESE
Cosmos 2151 Rocket 4.3 17:38:40 10° N 17:41:57 31° NE 17:41:57 31° NE
Cosmos 1092 Rocket 4.5 17:41:47 10° N 17:47:18 33° ENE 17:50:33 21° ESE
SKYMED 3 4.4 17:43:40 11° NNE 17:47:49 78° ESE 17:52:09 10° S
NOAA 12 4.0 17:44:54 10° SSE 17:50:10 69° ENE 17:55:28 10° N
Meteor 1-11 Rocket 3.8 17:45:44 10° N 17:51:33 59° ENE 17:57:10 10° SSE
CZ-2C R/B 4.4 17:49:27 10° N 17:53:49 53° WNW 17:58:13 10° SSW
Cosmos 44 Rocket 3.2 17:50:01 10° NW 17:54:54 85° NE 17:58:41 17° SE
Okean 2 Rocket 3.0 17:51:21 10° N 17:55:54 88° ENE 18:00:26 10° S
Cosmos 1606 3.8 17:57:49 10° SSW 18:01:26 44° WNW 18:05:05 10° N
Cosmos 1441 Rocket 3.1 17:58:01 10° S 18:01:48 65° ESE 18:01:48 65° ESE
Cosmos 292 Rocket 3.7 17:57:11 10° NNW 18:01:58 87° WSW 18:06:43 10° SSE
Cosmos 405 2.9 18:00:13 10° N 18:03:50 89° W 18:07:25 10° S
Cosmos 1464 Rocket 4.0 17:59:19 10° S 18:05:27 80° W 18:11:39 10° N
SKYMED 2 3.8 18:01:55 12° N 18:05:51 68° WNW 18:10:09 10° SSW
Lacrosse 5 3.5 18:03:55 10° NW 18:07:40 20° N 18:08:26 19° NNE
COSMOS 2455 4.5 18:04:11 10° WSW 18:09:20 29° NW 18:14:18 11° NNE
CZ-4 R/B 3.9 18:06:35 10° SSW 18:09:37 22° W 18:12:39 10° NW
EO 1 Del DPAF 3.7 18:08:14 25° N 18:10:16 58° WNW 18:14:01 10° SSW
USA 234 3.3 18:11:19 41° ENE 18:13:37 63° SE 18:20:04 10° SW
Cosmos 44 3.9 18:14:17 10° NW 18:18:52 55° WSW 18:22:42 16° SSE
Cosmos 2082 Rocket 3.2 18:13:41 10° NW 18:19:05 46° WSW 18:24:27 10° S
Cosmos 968 Rocket 3.3 18:14:19 10° S 18:19:25 66° ESE 18:19:34 66° E
Meteor 2-20 Rocket 4.3 18:19:01 10° N 18:25:09 87° E 18:31:14 10° S
BREEZE-M DEB (TANK) 3.2 18:25:56 10° WNW 18:27:38 43° NW 18:27:38 43° NW
ALOS 3.3 18:28:12 10° S 18:32:41 46° W 18:37:11 10° NNW
Cosmos 405 Rocket 4.1 18:32:52 10° SW 18:36:23 36° WNW 18:36:33 36° WNW
FengYun 1-2 T 4.2 18:39:44 23° S 18:43:16 79° WSW 18:48:53 10° NNW
CZ-4C R/B 3.1 18:47:12 10° NW 18:54:20 68° WSW 18:58:04 34° SSE
Meteor 1-5 Rocket 4.4 18:49:37 10° NNW 18:54:41 64° W 18:54:41 64° W
USA 229 DEB 4.0 19:00:06 10° SSW 19:05:14 55° SSW 19:05:14 55° SSW
USA 229 4.0 19:00:12 10° SSW 19:05:17 54° SSW 19:05:17 54° SSW
Cosmos 2369 Rocket 4.5 19:10:52 10° SSW 19:11:27 13° SSW 19:11:27 13° SSW
USA 234 4.4 19:58:41 37° WNW 19:58:41 37° WNW 20:02:48 10° W
